EW6092 Weather Reports


Display with metric or nautical units.
time (UTC)temp
F
wind
direction
speed
MPH
gust
MPH
rain 1hr
in
rain 24hr
in
rain mn
in
humidity
%
barometer
mb
20210412182131 81 165 11.0 20.0 0.00 0.00 0.00 69 1008.3
20210412181355 80 175 10.0 17.0 0.00 0.00 0.00 70 1008.4
20210412180855 81 157 9.0 14.0 0.00 0.00 0.00 70 1008.5
20210412180324 81 170 8.0 14.0 0.00 0.00 0.00 70 1008.5
20210412180202 80 152 8.0 15.0 0.00 0.00 0.00 72 1008.6
20210412175938 80 150 9.0 14.0 0.00 0.00 0.00 71 1008.7
20210412174819 79 123 8.0 14.0 0.00 0.00 0.00 72 1008.7
20210412174210 79 152 7.0 13.0 0.00 0.00 0.00 75 1008.7
20210412173658 79 145 8.0 13.0 0.00 0.00 0.00 76 1008.8
20210412173143 79 154 8.0 15.0 0.00 0.00 0.00 76 1008.9
20210412173024 79 157 8.0 15.0 0.00 0.00 0.00 75 1009.0
20210412172753 78 146 8.0 12.0 0.00 0.00 0.00 77 1009.1
20210412171643 78 107 7.0 12.0 0.00 0.00 0.00 77 1009.1
20210412171136 78 151 7.0 11.0 0.00 0.00 0.00 78 1009.2
20210412170907 78 116 8.0 13.0 0.00 0.00 0.00 78 1009.2
20210412170445 78 130 8.0 13.0 0.00 0.00 0.00 78 1009.3
20210412170027 78 130 7.0 12.0 0.00 0.00 0.00 79 1009.4
20210412165342 77 107 8.0 15.0 0.00 0.00 0.00 81 1009.4
20210412164540 77 115 8.0 15.0 0.00 0.00 0.00 81 1009.4
20210412164033 77 166 8.0 15.0 0.00 0.00 0.00 80 1009.3
20210412163525 77 168 7.0 15.0 0.00 0.00 0.00 80 1009.4
20210412163049 77 148 8.0 14.0 0.00 0.00 0.00 80 1009.3
20210412162858 77 147 8.0 15.0 0.00 0.00 0.00 81 1009.3
20210412162038 77 155 8.0 15.0 0.00 0.00 0.00 81 1009.2
20210412161425 76 159 7.0 10.0 0.00 0.00 0.00 83 1009.1
20210412160850 76 144 8.0 12.0 0.00 0.00 0.00 83 1009.0
20210412160348 76 152 8.0 17.0 0.00 0.00 0.00 83 1008.9
20210412160055 75 162 7.0 14.0 0.00 0.00 0.00 84 1009.1
20210412155847 75 118 7.0 10.0 0.00 0.00 0.00 84 1009.0
20210412155033 75 149 8.0 15.0 0.00 0.00 0.00 85 1008.9
20210412154242 75 137 8.0 15.0 0.00 0.00 0.00 85 1008.9
20210412153743 75 158 8.0 12.0 0.00 0.00 0.00 85 1009.0
20210412153243 75 144 7.0 14.0 0.00 0.00 0.00 85 1008.9
20210412152957 75 132 6.0 14.0 0.00 0.00 0.00 86 1008.9
20210412152736 74 127 7.0 13.0 0.00 0.00 0.00 87 1008.8
20210412151638 74 153 6.0 13.0 0.00 0.00 0.00 88 1008.9
20210412151129 74 128 6.0 11.0 0.00 0.00 0.00 89 1008.9
20210412150630 73 138 7.0 12.0 0.00 0.00 0.00 90 1008.8
20210412150225 73 150 5.0 12.0 0.00 0.00 0.00 89 1008.7
20210412145956 73 115 5.0 9.0 0.00 0.00 0.00 91 1008.5
20210412145727 72 157 6.0 9.0 0.00 0.00 0.00 92 1008.5
20210412144535 72 115 6.0 12.0 0.00 0.00 0.00 93 1008.5
20210412144035 71 122 6.0 12.0 0.00 0.00 0.00 94 1008.5
20210412143529 71 136 5.0 11.0 0.00 0.00 0.00 95 1008.4
20210412143221 71 106 5.0 11.0 0.00 0.00 0.00 96 1008.4
20210412142917 70 149 5.0 11.0 0.00 0.00 0.00 96 1008.4
20210412142345 70 119 4.0 9.0 0.00 0.00 0.00 97 1008.4
20210412141527 69 134 4.0 9.0 0.00 0.00 0.00 97 1008.3
20210412141020 69 90 3.0 7.0 0.00 0.00 0.00 97 1008.4
20210412140513 69 107 2.0 7.0 0.00 0.00 0.00 97 1008.4
20210412140140 69 131 3.0 7.0 0.00 0.00 0.00 98 1008.4
20210412135939 68 116 3.0 6.0 0.00 0.00 0.00 98 1008.3
20210412135202 68 98 2.0 6.0 0.00 0.00 0.00 98 1008.1
20210412134416 68 107 1.0 4.0 0.00 0.00 0.00 98 1008.1
20210412133910 67 109 2.0 6.0 0.00 0.00 0.00 98 1008.1
20210412133346 67 109 2.0 6.0 0.00 0.00 0.00 98 1008.1
20210412132849 67 103 2.0 6.0 0.00 0.00 0.00 98 1008.0
20210412132605 67 109 2.0 6.0 0.00 0.00 0.00 98 1008.0
20210412131859 67 107 2.0 6.0 0.00 0.00 0.00 98 1008.0
20210412131310 67 101 2.0 4.0 0.00 0.00 0.00 98 1008.0
20210412130742 66 106 2.0 4.0 0.00 0.00 0.00 98 1008.0
20210412130217 66 106 2.0 4.0 0.00 0.00 0.00 98 1008.0
20210412125936 65 106 2.0 4.0 0.00 0.00 0.00 98 1007.9
20210412124629 65 105 1.0 4.0 0.00 0.00 0.00 97 1008.0
20210412124118 65 105 2.0 4.0 0.00 0.00 0.00 97 1007.8
20210412123556 65 105 2.0 6.0 0.00 0.00 0.00 97 1007.6
20210412123048 65 105 3.0 6.0 0.00 0.00 0.00 97 1007.6
20210412123021 64 123 4.0 6.0 0.00 0.00 0.00 97 1007.5
20210412122645 64 115 3.0 6.0 0.00 0.00 0.00 97 1007.4
20210412121536 64 115 3.0 6.0 0.00 0.00 0.00 97 1007.4
20210412121039 64 115 4.0 8.0 0.00 0.00 0.00 97 1007.2
20210412120455 64 111 4.0 8.0 0.00 0.00 0.00 97 1007.2
20210412115433 64 112 3.0 6.0 0.00 0.00 0.00 97 1007.1
20210412114346 64 121 3.0 6.0 0.00 0.00 0.00 97 1007.0
20210412113832 65 132 3.0 5.0 0.00 0.00 0.00 97 1007.0
20210412113313 65 127 3.0 6.0 0.00 0.00 0.00 97 1007.0
20210412112859 65 126 3.0 6.0 0.00 0.00 0.00 97 1006.8
20210412112654 65 129 3.0 5.0 0.00 0.00 0.00 97 1006.8
20210412111830 65 126 3.0 6.0 0.00 0.00 0.00 97 1006.7
20210412111236 65 123 3.0 6.0 0.00 0.00 0.00 97 1006.6
20210412110738 65 131 3.0 7.0 0.00 0.00 0.00 97 1006.6
20210412110210 65 131 3.0 7.0 0.00 0.00 0.00 97 1006.5
20210412105940 65 125 3.0 7.0 0.00 0.00 0.00 97 1006.4
20210412105745 65 119 3.0 7.0 0.00 0.00 0.00 97 1006.4
20210412104619 65 117 3.0 6.0 0.00 0.00 0.00 97 1006.3
20210412104108 65 91 3.0 6.0 0.00 0.00 0.00 97 1006.4
20210412103604 65 106 2.0 4.0 0.00 0.00 0.00 96 1006.3
20210412103056 65 108 2.0 4.0 0.00 0.00 0.00 96 1006.3
20210412102918 65 108 1.0 3.0 0.00 0.00 0.00 96 1006.4
20210412102455 65 108 1.0 3.0 0.00 0.00 0.00 96 1006.2
20210412101521 65 108 2.0 4.0 0.00 0.00 0.00 96 1006.2
20210412100959 65 108 2.0 4.0 0.00 0.00 0.00 96 1006.2
20210412100433 65 113 2.0 4.0 0.00 0.00 0.00 96 1006.2
20210412100112 65 113 2.0 4.0 0.00 0.00 0.00 96 1006.2
20210412095914 65 110 2.0 3.0 0.00 0.00 0.00 96 1006.2
20210412094948 65 110 2.0 4.0 0.00 0.00 0.00 96 1006.0
20210412094338 65 121 2.0 4.0 0.00 0.00 0.00 96 1005.9
20210412093820 65 121 2.0 6.0 0.00 0.00 0.00 96 1006.0
20210412093323 65 126 2.0 6.0 0.00 0.00 0.00 96 1006.0
20210412092839 64 102 2.0 4.0 0.00 0.00 0.00 96 1006.0
20210412092632 64 102 3.0 6.0 0.00 0.00 0.00 96 1006.1
20210412091906 64 101 3.0 6.0 0.00 0.00 0.00 96 1006.1
20210412091305 64 101 3.0 6.0 0.00 0.00 0.00 96 1006.0
20210412090737 64 101 2.0 4.0 0.00 0.00 0.00 96 1006.2
20210412090247 64 101 2.0 4.0 0.00 0.00 0.00 96 1006.3
20210412090030 64 101 2.0 4.0 0.00 0.00 0.00 96 1006.3
20210412085650 64 101 2.0 4.0 0.00 0.00 0.00 96 1006.3
20210412084633 64 101 2.0 4.0 0.00 0.00 0.00 96 1006.4
20210412084106 63 101 2.0 4.0 0.00 0.00 0.00 96 1006.5
20210412083627 63 101 2.0 4.0 0.00 0.00 0.00 96 1006.5
20210412083139 63 101 2.0 4.0 0.00 0.00 0.00 95 1006.5
20210412082912 63 128 2.0 4.0 0.00 0.00 0.00 95 1006.5
20210412082519 63 128 2.0 4.0 0.00 0.00 0.00 95 1006.5
20210412081601 63 128 2.0 4.0 0.00 0.00 0.00 95 1006.4
20210412081047 63 128 1.0 4.0 0.00 0.00 0.00 95 1006.4
20210412080550 63 128 0.0 4.0 0.00 0.00 0.00 95 1006.5
20210412080027 63 128 0.0 0.0 0.00 0.00 0.00 95 1006.5
20210412075752 63 128 0.0 0.0 0.00 0.00 0.00 94 1006.5
20210412075107 63 128 0.0 0.0 0.00 0.00 0.00 94 1006.5
20210412074438 63 128 0.0 0.0 0.00 0.00 0.00 94 1006.6
20210412073910 63 128 0.0 0.0 0.00 0.00 0.00 94 1006.5
20210412073346 63 128 0.0 0.0 0.00 0.00 0.00 94 1006.6
20210412072951 64 128 0.0 0.0 0.00 0.00 0.00 94 1006.6
20210412072830 64 128 0.0 0.0 0.00 0.00 0.00 94 1006.6
20210412071825 64 128 0.0 1.0 0.00 0.00 0.00 94 1006.7
20210412071221 64 128 1.0 3.0 0.00 0.00 0.00 94 1006.8
20210412070701 64 128 2.0 3.0 0.00 0.00 0.00 94 1006.9
20210412070223 64 128 1.0 4.0 0.00 0.00 0.00 94 1006.9
20210412065823 64 128 2.0 4.0 0.00 0.00 0.00 94 1006.8
20210412065442 64 128 3.0 5.0 0.00 0.00 0.00 94 1006.8
20210412064551 64 128 2.0 4.0 0.00 0.00 0.00 94 1006.8
20210412064025 64 126 3.0 4.0 0.00 0.00 0.00 94 1006.7
20210412063451 64 122 3.0 6.0 0.00 0.00 0.00 94 1006.7
20210412063034 64 127 3.0 6.0 0.00 0.00 0.00 93 1006.8
20210412061934 64 111 3.0 7.0 0.00 0.00 0.00 93 1006.8
20210412061330 64 111 3.0 7.0 0.00 0.00 0.00 93 1006.8
20210412060832 64 107 2.0 6.0 0.00 0.00 0.00 93 1006.8
20210412060259 64 105 0.0 4.0 0.00 0.00 0.00 93 1006.9
20210412055919 64 104 0.0 0.0 0.00 0.00 0.00 92 1007.0
20210412055647 64 100 0.0 0.0 0.00 0.00 0.00 92 1007.0
20210412054732 64 100 0.0 0.0 0.00 0.00 0.00 92 1007.0
20210412054211 64 100 0.0 0.0 0.00 0.00 0.00 92 1007.1
20210412053633 64 100 0.0 0.0 0.00 0.00 0.00 92 1007.0
20210412053120 65 100 0.0 0.0 0.00 0.00 0.00 92 1007.1
20210412052654 65 100 0.0 4.0 0.00 0.00 0.00 91 1007.2
20210412051556 65 100 1.0 4.0 0.00 0.00 0.00 91 1007.1
20210412051058 65 100 1.0 4.0 0.00 0.00 0.00 91 1007.0
20210412050523 65 100 2.0 4.0 0.00 0.00 0.00 91 1007.1
20210412050147 65 100 3.0 7.0 0.00 0.00 0.00 91 1007.0
20210412045220 65 119 3.0 7.0 0.00 0.00 0.00 91 1006.9
20210412044432 65 132 4.0 7.0 0.00 0.00 0.00 91 1006.8
20210412043927 65 128 4.0 10.0 0.00 0.00 0.00 91 1006.9
20210412043521 65 117 5.0 10.0 0.00 0.00 0.00 91 1006.8
20210412043102 65 119 5.0 9.0 0.00 0.00 0.00 91 1006.7
20210412042904 65 130 4.0 8.0 0.00 0.00 0.00 90 1006.7
20210412041914 65 109 5.0 8.0 0.00 0.00 0.00 90 1006.8
20210412041324 65 96 5.0 8.0 0.00 0.00 0.00 90 1006.9
20210412040816 65 133 5.0 9.0 0.00 0.00 0.00 90 1006.8
20210412040249 65 135 4.0 9.0 0.00 0.00 0.00 89 1006.8
20210412035902 65 125 4.0 8.0 0.00 0.00 0.00 89 1006.9
20210412035634 65 126 3.0 6.0 0.00 0.00 0.00 89 1006.9
20210412034746 66 126 2.0 6.0 0.00 0.00 0.00 88 1006.9
20210412034235 66 126 2.0 5.0 0.00 0.00 0.00 88 1006.9
20210412033735 66 126 3.0 7.0 0.00 0.00 0.00 88 1006.9
20210412033232 66 126 3.0 7.0 0.00 0.00 0.00 87 1006.9
20210412032914 66 126 3.0 5.0 0.00 0.00 0.00 87 1006.9
20210412032528 67 126 3.0 7.0 0.00 0.00 0.00 87 1006.9
20210412031634 67 126 3.0 7.0 0.00 0.00 0.00 86 1006.8
20210412031111 67 125 4.0 7.0 0.00 0.00 0.00 86 1006.7
20210412030543 67 97 4.0 7.0 0.00 0.00 0.00 86 1006.8
20210412030040 67 105 3.0 7.0 0.00 0.00 0.00 85 1006.7
20210412025840 67 128 4.0 7.0 0.00 0.00 0.00 84 1006.7
20210412025241 67 121 4.0 8.0 0.00 0.00 0.00 84 1006.7
20210412024445 68 125 4.0 8.0 0.00 0.00 0.00 83 1006.6
20210412023931 68 123 5.0 8.0 0.00 0.00 0.00 82 1006.5
20210412023435 68 128 4.0 9.0 0.00 0.00 0.00 82 1006.4
20210412023040 68 109 4.0 9.0 0.00 0.00 0.00 81 1006.3
20210412022844 69 117 5.0 11.0 0.00 0.00 0.00 80 1006.2
20210412022101 69 117 5.0 10.0 0.00 0.00 0.00 79 1006.2
20210412021345 69 159 5.0 9.0 0.00 0.00 0.00 78 1006.1
20210412020833 69 133 5.0 11.0 0.00 0.00 0.00 77 1006.1
20210412020334 70 131 5.0 11.0 0.00 0.00 0.00 76 1006.0
20210412015838 70 139 6.0 9.0 0.00 0.00 0.00 76 1005.9
20210412015546 70 117 6.0 12.0 0.00 0.00 0.00 75 1005.8
20210412014747 70 144 6.0 12.0 0.00 0.00 0.00 74 1005.7
20210412014232 71 138 5.0 11.0 0.00 0.00 0.00 73 1005.7
20210412013720 71 127 6.0 11.0 0.00 0.00 0.00 73 1005.7
20210412013330 71 144 6.0 12.0 0.00 0.00 0.00 72 1005.7
20210412013107 71 136 6.0 11.0 0.00 0.00 0.00 71 1005.6
20210412012708 72 150 5.0 11.0 0.00 0.00 0.00 71 1005.6
20210412011722 72 132 6.0 11.0 0.00 0.00 0.00 70 1005.4
20210412011145 72 142 6.0 11.0 0.00 0.00 0.00 69 1005.3
20210412010620 72 151 6.0 10.0 0.00 0.00 0.00 68 1005.3
20210412010101 73 148 6.0 11.0 0.00 0.00 0.00 67 1005.2
20210412005836 74 133 6.0 12.0 0.00 0.00 0.00 65 1005.1
20210412004434 74 142 6.0 14.0 0.00 0.00 0.00 64 1004.9
20210412003932 74 140 8.0 14.0 0.00 0.00 0.00 63 1004.9
20210412003428 74 153 9.0 14.0 0.00 0.00 0.00 62 1004.9
20210412003115 75 126 8.0 11.0 0.00 0.00 0.00 62 1004.7
20210412002139 75 115 9.0 18.0 0.00 0.00 0.00 61 1004.7
20210412001348 75 157 9.0 18.0 0.00 0.00 0.00 61 1004.6
20210412000843 75 148 9.0 18.0 0.00 0.00 0.00 60 1004.5
20210412000349 76 130 9.0 18.0 0.00 0.00 0.00 60 1004.5
20210411235943 76 147 11.0 19.0 0.00 0.00 0.00 59 1004.5
20210411235822 76 165 12.0 19.0 0.00 0.00 0.00 59 1004.5
20210411234922 77 136 12.0 19.0 0.00 0.00 0.00 58 1004.4
20210411234240 77 151 10.0 19.0 0.00 0.00 0.00 56 1004.4
20210411233738 78 152 10.0 19.0 0.00 0.00 0.00 55 1004.4
20210411233258 78 142 11.0 19.0 0.00 0.00 0.00 53 1004.3
20210411233059 78 157 9.0 17.0 0.00 0.00 0.00 51 1004.3
20210411232836 79 149 10.0 18.0 0.00 0.00 0.00 51 1004.1
20210411231629 79 126 12.0 19.0 0.00 0.00 0.00 51 1004.1
20210411231139 79 158 13.0 21.0 0.00 0.00 0.00 51 1004.1
20210411230552 79 190 13.0 21.0 0.00 0.00 0.00 51 1004.0
20210411230100 80 159 13.0 22.0 0.00 0.00 0.00 51 1003.9
20210411225841 80 159 14.0 22.0 0.00 0.00 0.00 53 1003.9
20210411225038 80 144 14.0 22.0 0.00 0.00 0.00 52 1003.8
20210411224431 81 163 14.0 22.0 0.00 0.00 0.00 53 1003.9
20210411223918 82 147 13.0 21.0 0.00 0.00 0.00 52 1003.9
20210411223426 83 145 10.0 19.0 0.00 0.00 0.00 49 1003.8
20210411223211 85 143 7.0 16.0 0.00 0.00 0.00 46 1003.8
20210411222945 85 137 6.0 15.0 0.00 0.00 0.00 44 1003.8
20210411222159 85 142 4.0 9.0 0.00 0.00 0.00 44 1003.8
20210411221406 84 173 6.0 12.0 0.00 0.00 0.00 46 1003.9
20210411220837 85 146 6.0 12.0 0.00 0.00 0.00 44 1003.9
20210411220542 85 124 6.0 11.0 0.00 0.00 0.00 44 1003.9
20210411220102 85 107 6.0 12.0 0.00 0.00 0.00 44 1003.9
20210411215831 85 96 5.0 12.0 0.00 0.00 0.00 44 1004.0
20210411214842 85 123 6.0 10.0 0.00 0.00 0.00 43 1004.0
20210411214237 85 87 6.0 10.0 0.00 0.00 0.00 43 1004.0
20210411213712 85 100 5.0 9.0 0.00 0.00 0.00 44 1004.1
20210411213255 85 149 6.0 18.0 0.00 0.00 0.00 44 1004.1
20210411212948 85 151 6.0 18.0 0.00 0.00 0.00 44 1004.2
20210411212349 84 214 4.0 13.0 0.00 0.00 0.00 45 1004.3
20210411211538 85 198 4.0 10.0 0.00 0.00 0.00 44 1004.3
20210411211022 84 165 6.0 13.0 0.00 0.00 0.00 45 1004.4
20210411210455 84 178 6.0 13.0 0.00 0.00 0.00 44 1004.4
20210411210022 85 154 4.0 9.0 0.00 0.00 0.00 44 1004.5
20210411205902 85 147 3.0 8.0 0.00 0.00 0.00 45 1004.5
20210411205230 85 187 4.0 8.0 0.00 0.00 0.00 44 1004.6
20210411204413 84 182 6.0 10.0 0.00 0.00 0.00 45 1004.7
20210411203849 84 200 6.0 14.0 0.00 0.00 0.00 44 1004.8
20210411203536 84 219 5.0 14.0 0.00 0.00 0.00 45 1004.8
20210411203237 84 159 4.0 10.0 0.00 0.00 0.00 45 1004.9
20210411202937 84 203 5.0 10.0 0.00 0.00 0.00 43 1005.0
20210411202025 84 185 5.0 11.0 0.00 0.00 0.00 43 1005.1
20210411201219 84 166 4.0 11.0 0.00 0.00 0.00 42 1005.2
20210411200654 84 119 3.0 12.0 0.00 0.00 0.00 41 1005.3
20210411200147 84 319 3.0 8.0 0.00 0.00 0.00 41 1005.3
20210411195921 83 136 4.0 8.0 0.00 0.00 0.00 42 1005.5
20210411195558 84 39 3.0 8.0 0.00 0.00 0.00 42 1005.6
20210411194615 85 259 3.0 9.0 0.00 0.00 0.00 41 1005.6
20210411194112 83 229 5.0 10.0 0.00 0.00 0.00 43 1005.6
20210411193544 83 179 5.0 11.0 0.00 0.00 0.00 42 1005.6
20210411193152 85 213 5.0 9.0 0.00 0.00 0.00 41 1005.7
20210411193000 84 150 5.0 10.0 0.00 0.00 0.00 42 1005.8
20210411192644 83 109 4.0 10.0 0.00 0.00 0.00 42 1005.9
20210411191516 84 115 3.0 10.0 0.00 0.00 0.00 40 1006.0
20210411191025 84 5 3.0 9.0 0.00 0.00 0.00 41 1006.0
20210411190507 83 132 4.0 9.0 0.00 0.00 0.00 41 1006.1
20210411190138 83 88 4.0 10.0 0.00 0.00 0.00 41 1006.1
20210411185935 84 101 3.0 10.0 0.00 0.00 0.00 40 1006.1
20210411185110 83 237 3.0 7.0 0.00 0.00 0.00 41 1006.2
20210411184412 82 189 4.0 11.0 0.00 0.00 0.00 40 1006.2
20210411183917 83 156 4.0 11.0 0.00 0.00 0.00 39 1006.4
20210411183715 81 176 5.0 13.0 0.00 0.00 0.00 41 1006.4
20210411183233 82 135 6.0 13.0 0.00 0.00 0.00 41 1006.5
20210411182949 82 152 4.0 10.0 0.00 0.00 0.00 41 1006.6